Location: Slemon Park
(46.4340°N, 63.8219°W)
Time: 06:25:38
(UTC-03:00)

Daily predictions for brighter satellites

Satellite Brightness Start Highest point End
(mag) Time Altitude Azimuth Time Altitude Azimuth Time Altitude Azimuth
Cosmos 2344 4.4 20:43:29 10° SSE 20:49:32 26° ESE 20:55:55 10° NE
Cosmos 1727 Rocket 4.4 20:44:07 10° N 20:49:59 43° ENE 20:55:51 10° SE
Resurs 01 Rocket 1.7 20:47:10 10° SSE 20:51:32 63° ENE 20:55:56 10° N
SL-16 R/B 2.6 20:50:28 10° S 20:55:43 41° ESE 21:01:00 10° NE
YAOGAN 6 2.6 20:52:16 10° SSE 20:55:53 88° E 20:59:37 10° NNW
ERS-2 2.9 21:00:01 10° S 21:03:37 55° WSW 21:07:15 10° NNW
Cosmos 407 Rocket 3.5 20:59:46 10° NNW 21:04:56 78° ENE 21:10:03 10° SSE
Cosmos 1862 3.9 21:05:20 10° N 21:09:09 38° ENE 21:12:50 10° SE
Cosmos 1869 Rocket 4.0 21:07:00 10° N 21:11:11 43° ENE 21:15:19 10° SSE
SL-8 R/B 3.8 21:07:20 10° WSW 21:12:09 83° NNW 21:16:59 10° ENE
Cosmos 2218 Rocket 4.0 21:06:10 10° S 21:12:31 77° E 21:18:57 10° NNE
Resurs 1-3 3.8 21:08:09 10° S 21:12:32 77° WSW 21:16:57 10° NNW
Cosmos 2366 rocket 4.0 21:10:41 10° S 21:16:53 75° E 21:23:14 10° NNE
BREEZE-M DEB (TANK) 2.3 21:13:52 10° WNW 21:17:31 55° SSW 21:19:00 17° SE
SL-8 Rocket 4.2 21:16:48 10° SSW 21:23:05 77° W 21:29:23 10° N
RESURS DK-1 4.2 21:21:50 10° N 21:24:51 19° NE 21:27:28 12° E
Cosmos 2369 Rocket 3.4 21:20:11 10° N 21:25:06 29° NE 21:29:10 13° ESE
Cosmos 1371 Rocket 4.4 21:21:42 10° SSW 21:27:01 71° WNW 21:32:25 10° NNE
Cosmos 1339 Rocket 4.5 21:20:56 10° N 21:27:06 89° E 21:33:17 10° S
Cosmos 2297 3.9 21:22:47 10° NNW 21:28:28 73° WSW 21:34:09 10° SSE
Cosmos 676 Rocket 4.0 21:25:58 10° NNW 21:31:15 82° ENE 21:35:51 13° SSE
USA 186 4.0 21:31:49 10° SW 21:33:23 16° W 21:35:01 10° NW
Meteor 1-4 Rocket 4.5 21:33:14 10° NNE 21:35:12 14° ENE 21:35:59 13° E
ATLAS 5 CENTAUR R/B 3.1 21:30:24 10° NNW 21:35:48 41° NE 21:40:35 15° ESE
USA 81 4.0 21:31:14 10° N 21:36:32 77° E 21:41:47 10° S
Cosmos 1441 Rocket 3.0 21:33:59 10° S 21:37:42 72° E 21:41:29 10° NNE
Helios 1B rocket 4.3 21:37:20 10° ENE 21:39:19 14° E 21:39:19 14° E
SL-08 RB Rocket 4.0 21:41:14 20° SE 21:44:02 48° ENE 21:48:21 10° N
H-2A R/B 2.3 21:40:45 19° SE 21:44:08 50° ENE 21:48:54 10° N
Cosmos 1140 Rocket 3.4 21:40:14 10° NNW 21:45:27 89° WSW 21:49:25 17° SSE
Cosmos 2237 Rocket 3.8 21:40:34 10° WSW 21:45:48 39° NW 21:51:05 10° NNE
Cosmos 2056 Rocket 4.2 21:42:34 10° SW 21:47:56 60° WNW 21:53:16 10° NNE
Cosmos 1452 Rocket 3.5 21:43:09 10° S 21:48:18 59° ESE 21:53:28 10° NNE
Terra 3.6 21:48:44 15° E 21:50:39 18° ENE 21:53:51 10° NNE
Cosmos 1934 Rocket 4.4 21:57:24 22° SE 22:00:50 41° E 22:06:28 10° NNE
Cosmos 1850 Rocket 4.1 21:57:43 10° NNW 22:02:52 62° ENE 22:05:32 28° SE
Cosmos 1933 3.2 22:03:42 18° S 22:06:38 82° E 22:10:45 10° N
Cosmos 921 Rocket 3.5 22:07:04 33° SE 22:07:58 37° ESE 22:11:56 10° NE
CZ-4C R/B 2.1 22:03:30 10° SSW 22:08:38 66° ESE 22:14:34 10° NE
MetOp-B 4.1 22:05:49 21° SSE 22:09:28 88° WSW 22:14:52 10° NNW
Cosmos 2242 Rocket 4.0 22:08:41 33° SE 22:09:56 42° E 22:14:07 10° NNE
Cosmos 1782 4.4 22:12:18 19° ENE 22:12:18 19° ENE 22:14:41 10° NE
USA 245 3.1 22:12:48 36° NNE 22:12:48 36° NNE 22:14:22 10° N
Cosmos 405 Rocket 3.7 22:09:58 10° SSW 22:13:45 48° WNW 22:17:38 10° N
Cosmos 1741 Rocket 4.0 22:08:26 10° NNW 22:13:47 74° ENE 22:16:20 31° SSE
Meteor 1-25 Rocket 4.4 22:10:35 10° N 22:16:13 55° ENE 22:18:40 32° SE
Cosmos 1174 4.5 22:15:00 29° SSE 22:16:47 41° ESE 22:20:41 10° NE
Cosmos 1461 4.2 22:13:08 10° NNW 22:17:36 36° NE 22:19:31 26° E
ARGOS 3.4 22:13:48 19° S 22:17:40 67° WSW 22:23:02 10° NNW
Cosmos 1943 Rocket 2.6 22:13:36 10° NNW 22:18:57 48° ENE 22:21:16 30° ESE
Helios 1A 2.9 22:19:35 41° SE 22:20:57 71° ENE 22:25:07 10° N
Cosmos 1862 Rocket 3.8 22:20:16 40° SE 22:21:17 49° E 22:25:31 10° NNE
Meteor 1-26 Rocket 4.1 22:23:44 26° S 22:26:55 70° E 22:32:29 10° NNE
Resurs 01 Rocket 4.3 22:25:59 10° WSW 22:28:27 15° W 22:30:54 10° NW
Intercosmos 24 4.3 22:25:15 19° S 22:29:24 84° E 22:33:36 10° N
Meteor 1-20 Rocket 4.2 22:24:17 10° N 22:29:44 64° ENE 22:31:46 38° SE
Lacrosse 5 1.8 22:25:23 10° NW 22:30:29 84° SW 22:32:11 43° SE
Cosmos 1437 Rocket 2.8 22:26:52 10° NNW 22:30:46 73° W 22:31:53 44° S
ERS-1 Rocket 3.1 22:29:44 29° S 22:32:19 68° WSW 22:37:21 10° NNW
Spot 1 4.5 22:31:45 42° ESE 22:33:02 57° ENE 22:37:31 10° N
SPOT 5 2.5 22:33:15 46° SSE 22:34:32 81° ENE 22:38:55 10° NNW
IGS 5A 4.0 22:34:06 40° E 22:34:34 42° ENE 22:38:32 10° N
Cosmos 1821 Rocket 4.1 22:30:22 13° SSW 22:36:04 80° W 22:42:22 10° N
SL-24 R/B 4.4 22:34:29 39° SSE 22:36:27 76° E 22:41:23 10° N
SL-16 R/B 3.8 22:34:43 10° WSW 22:39:54 36° NW 22:45:06 10° NNE
Meteor 1-29 4.2 22:41:50 10° NNE 22:43:58 32° NE 22:43:58 32° NE
Cosmos 1331 Rocket 4.4 22:46:21 42° ESE 22:46:28 42° ESE 22:51:25 10° NE
Meteor 2-17 Rocket 4.3 22:49:42 32° S 22:52:45 86° E 22:58:54 10° N
Cosmos 2123 Rocket 4.0 22:46:52 10° N 22:53:12 79° W 22:55:59 35° S
USA 234 4.2 22:48:41 12° E 22:54:23 43° NNE 23:00:28 10° NW
SL-8 R/B 3.8 22:50:07 10° WNW 22:54:55 71° N 22:56:34 40° ENE
Cosmos 1733 Rocket 3.7 22:51:10 10° NNW 22:55:25 50° W 22:56:38 38° SW
CARTOSAT-1 3.4 22:58:33 73° ESE 22:58:50 77° ENE 23:03:09 10° N
Cosmos 1633 3.2 22:58:12 10° NNW 23:01:38 49° W 23:01:38 49° W
Cosmos 2344 3.9 22:55:24 10° SW 23:02:58 70° NW 23:11:46 10° NE
RESURS DK-1 2.7 22:59:10 10° NW 23:03:15 56° WSW 23:03:23 56° WSW
Cosmos 1943 3.1 23:03:14 36° SSW 23:05:39 84° ESE 23:11:23 10° NNE
CZ-2C R/B 3.6 23:02:02 10° NNE 23:06:26 32° E 23:06:26 32° E
Cosmos 1603 4.2 23:01:48 10° SW 23:07:21 58° WNW 23:12:54 10° NNE
Cosmos 1486 Rocket 4.4 23:03:27 10° NNW 23:08:33 47° ENE 23:09:18 44° E
Okean 1-7 3.9 23:09:42 36° ENE 23:09:42 36° ENE 23:12:46 10° NNE
Cosmos 1606 2.9 23:09:08 72° NW 23:09:08 72° NW 23:12:54 10° N
Cosmos 2369 Rocket 2.6 23:03:55 10° NW 23:09:28 55° WSW 23:10:58 42° SSW
Landsat 7 4.0 23:09:07 53° SSW 23:09:59 64° WSW 23:14:44 10° NNW
Meteor 1-4 Rocket 3.7 23:07:14 10° NNW 23:10:16 37° W 23:10:16 37° W
Cosmos 389 Rocket 3.4 23:07:39 10° N 23:10:10 45° N 23:10:10 45° N
Helios 1B rocket 2.8 23:11:04 10° N 23:15:08 60° WNW 23:15:40 54° WSW
SPOT 1/Viking Rocket 4.2 23:14:27 37° SW 23:16:01 48° W 23:21:04 10° NNW
Cosmos 2173 Rocket 4.4 23:15:53 42° ESE 23:16:28 43° E 23:22:24 10° NNE
GEOS 3 Rocket 3.5 23:12:03 10° NE 23:17:26 69° SE 23:17:58 64° SSE
Cosmos 1110 Rocket 3.9 23:16:45 60° SSW 23:17:45 87° ESE 23:23:07 10° NNE
Nimbus 7 Rocket 4.3 23:12:58 10° NNE 23:18:52 70° ESE 23:19:51 59° SSE
ATLAS 5 CENTAUR R/B 2.8 23:14:57 10° NW 23:20:44 52° WSW 23:22:08 44° SSW
Cosmos 2263 4.4 23:16:30 10° NNW 23:22:01 60° WSW 23:22:59 52° SSW
Cosmos 1782 Rocket 3.6 23:18:27 10° N 23:22:41 74° NE 23:22:41 74° NE
H-2A R/B 3.9 23:21:22 15° SW 23:23:50 22° W 23:27:38 10° NW
CZ-2C R/B 2.7 23:24:05 76° E 23:24:12 77° ENE 23:29:08 10° N
Gblst 52 Del rocket 4.3 23:19:57 10° WSW 23:25:28 72° NNW 23:31:05 10° ENE
Sich 1 Rocket 3.6 23:21:54 10° NNW 23:26:27 79° W 23:26:27 79° W
Cosmos 1605 Rocket 4.3 23:24:01 34° SSW 23:26:51 67° W 23:33:16 10° N
YAOGAN 11 4.2 23:27:33 67° W 23:27:33 67° W 23:31:41 10° NNW
Terra 1.9 23:27:36 62° WSW 23:27:55 63° WSW 23:32:40 10° NNW
Okean 2 Rocket 3.5 23:29:48 10° N 23:33:31 53° NE 23:33:31 53° NE
Meteor 1-11 Rocket 3.5 23:32:32 10° N 23:38:09 78° ENE 23:38:30 74° ESE
Cosmos 1459 Rocket 3.8 23:41:43 64° ESE 23:42:12 67° E 23:48:14 10° NNE
Meteor 1-5 Rocket 4.2 23:39:09 10° N 23:44:31 65° ENE 23:44:37 65° E
Meteor 1-27 Rocket 3.7 23:45:04 72° ESE 23:45:18 73° E 23:51:04 10° NNE
Cosmos 1782 4.2 23:47:54 33° WNW 23:47:54 33° WNW 23:51:30 10° N
Cosmos 1703 Rocket 4.2 23:50:00 50° WNW 23:50:00 50° WNW 23:53:59 10° N
Cosmos 1271 Rocket 3.8 23:46:35 10° N 23:49:21 44° N 23:49:21 44° N
Spot 4 3.9 23:51:38 75° N 23:51:38 75° N 23:56:02 10° NNW
H-2A R/B 3.6 23:54:05 29° NE 23:54:05 29° NE 23:57:31 10° N
